Home > Weather > Santarém > Past weeks

Flag for Brazil Past Weather in Santarém, Pará, Brazil — Yesterday and Last 2 Weeks

Now
81 °F

Passing clouds.


Feels Like: 86 °F
Forecast: N/A
Wind: 5 mph from East

Location: Santarem-Aeroporto

Current Time: Jun 25, 2016 at 8:11:45 PM

Latest Report: Jun 25, 2016 at 7:00 PM


Visibility: N/A

Pressure: 29.83 "Hg

Humidity: 84%

Dew Point: 75 °F

Location of SantarémLocation

Past Weather in Santarém — Graph

°F

Santarém Temperature Yesterday

Maximum temperature yesterday: 86 °F (at 1:00 PM)
Minimum temperature yesterday: 73 °F (at 11:00 PM)
Average temperature yesterday: 80 °F

High & Low Weather Summary for the Past Weeks

 TemperatureHumidityPressure
High88 °F (Jun 11, 2:00 PM)100% (Jun 11, 2:00 AM)30.07 "Hg (Jun 11, 2:00 AM)
Low36 °F (Jun 22, 3:00 AM)55% (Jun 16, 5:00 PM)29.83 "Hg (Jun 17, 5:00 PM)
Average79 °F86%29.95 "Hg
* Reported Jun 10 7:00 PM — Jun 25 7:00 PM, Santarém, Weather by CustomWeather, © 2016

Note: Actual official high and low records may vary slightly from our data, if they occured in-between our weather recording intervals... More about our weather records

Advertising

Santarém Weather History for the Previous 24 Hours

Scroll right to see more
 ConditionsComfort  
Time TempWeatherWind HumidityBarometerVisibility
7:00 PM
Sat, Jun 25
81 °FPassing clouds.5 mph84%29.83 "HgN/A
6:00 PM84 °FPassing clouds.6 mph74%29.83 "HgN/A
5:00 PM86 °FPassing clouds.9 mph70%29.83 "HgN/A
4:00 PM86 °FPassing clouds.8 mph70%29.83 "HgN/A
3:00 PM86 °FPassing clouds.10 mph70%29.86 "HgN/A
2:00 PM86 °FPassing clouds.12 mph70%29.89 "HgN/A
1:00 PM86 °FScattered clouds.15 mph75%29.92 "HgN/A
12:00 PM84 °FScattered clouds.12 mph74%29.92 "HgN/A
11:00 AM82 °FScattered clouds.10 mph84%29.95 "HgN/A
10:00 AM82 °FPassing clouds.9 mph79%29.95 "HgN/A
9:00 AM81 °FBroken clouds.12 mph84%29.95 "HgN/A
8:00 AM79 °FSunny.6 mph89%29.92 "Hg10 mi
7:00 AM77 °FPassing clouds.6 mph94%29.92 "HgN/A
6:00 AM75 °FPassing clouds.2 mph100%29.89 "HgN/A
5:00 AM75 °FThunderstorms. Passing clouds.9 mph100%N/A3 mi
4:00 AM73 °FThundershowers. Passing clouds.6 mph100%29.86 "HgN/A
3:00 AM73 °FPassing clouds.1 mph94%29.89 "HgN/A
2:00 AM73 °FClear.2 mph100%29.89 "Hg10 mi
1:00 AM73 °FClear.2 mph100%29.92 "Hg10 mi
12:00 AM75 °FClear.3 mph94%29.92 "Hg10 mi
11:00 PM
Fri, Jun 24
73 °FClear.3 mph100%29.92 "Hg10 mi
10:00 PM75 °FClear.5 mph89%29.92 "Hg10 mi
9:00 PM75 °FClear.3 mph89%29.89 "HgN/A
8:00 PM75 °FPassing clouds.5 mph89%29.86 "HgN/A
Weather by CustomWeather, © 2016

See weather overviewHow to use our weather pages